Volver al catálogo

FENGYUN 1C DEB

ActivoSSO
NORAD 35180·DEBRIS·🇨🇳 China

Lanzado May 10, 1999 desde Taiyuan Satellite Launch Center

Loading…

Próximos Pases (próximas 24 horas)

TLE

EnvejeciendoSource: Space-Track

Época: Sep 7, 2026, 17:16 UTC

1 35180U 99025DNL 26250.71988923  .00002096  00000-0  89347-3 0  9995
2 35180  99.7566  63.5912 0481599  37.5480 325.8300 13.78149422 37350

Sigue FENGYUN 1C DEB en tiempo real con AllMySat

Download on the App Store